[[{"header":{"parameterUnit":"m.s-1","parameterCategory":1,"la1":30.2992,"la2":30.254,"lo1":-89.0895,"lo2":-89.0443,"dy":0.0025,"dx":0.0025,"nx":19,"ny":19,"refTime":"2026-04-23T03:00:00:Z","depth":0,"parameterNumber":2,"parameterNumberName":"U-component_of_WINDS"},"data":[0,0,0,-2.4679,-2.468,-2.4764,-2.4765,-2.4871,-2.4872,0,0,0,0,0,0,0,0,0,0,0,-2.4652,-2.4653,-2.4678,-2.468,-2.4764,-2.4765,-2.4871,-2.4872,0,0,0,0,0,0,0,0,0,0,0,-2.4652,-2.4652,-2.4653,-2.4681,-2.4764,-2.4765,-2.4871,-2.4808,0,0,0,0,0,0,0,0,0,0,-2.4727,-2.47,-2.4652,-2.4653,-2.4681,-2.4764,-2.4765,-2.4805,-2.4812,-2.4833,0,-2.4849,0,-2.4862,-2.4879,-2.488,0,0,0,-2.4682,-2.4694,-2.4719,-2.4653,-2.4682,-2.4764,-2.4727,-2.4809,-2.4817,-2.4842,-2.4851,-2.4855,-2.4864,-2.488,-2.488,-2.4991,-2.4991,0,0,-2.4677,-2.4666,-2.4713,-2.4724,-2.4709,-2.4724,-2.473,-2.4814,-2.4823,-2.4851,-2.4857,-2.4866,-2.4881,-2.4881,-2.4991,-2.4991,0,0,0,-2.4663,-2.4663,-2.4685,-2.4719,-2.4734,-2.4727,-2.4733,-2.482,-2.4828,-2.4859,-2.4867,-2.4881,-2.4883,-2.499,-2.4991,-2.5001,0,0,0,-2.466,-2.4655,-2.4683,-2.4677,-2.4733,-2.4778,-2.4737,-2.4822,-2.4832,-2.4867,-2.4881,-2.4884,-2.499,-2.499,-2.4999,-2.5007,0,0,0,-2.4647,-2.4653,-2.4665,-2.4676,-2.4712,-2.4777,-2.479,-2.4824,-2.4837,-2.488,-2.4884,-2.4989,-2.499,-2.4998,-2.5005,-2.5032,0,0,0,-2.463,-2.4673,-2.4665,-2.4716,-2.4711,-2.4782,-2.4789,-2.4843,-2.4881,-2.4882,-2.499,-2.4991,-2.4998,-2.5004,-2.5031,-2.5052,-2.506,0,0,-2.4678,-2.4678,-2.471,-2.4705,-2.4774,-2.477,-2.4842,-2.4888,-2.4903,-2.4961,-2.4964,-2.5,-2.5005,-2.5032,-2.5111,-2.5117,0,0,0,-2.4721,-2.4743,-2.4764,-2.4799,-2.4835,-2.4866,-2.4902,-2.4919,-2.4969,-2.493,-2.5018,-2.5022,-2.5038,-2.5048,-2.5054,-2.5068,-2.4995,-2.4995,-2.4995,-2.4772,-2.4788,-2.4841,-2.4868,-2.4902,-2.4939,-2.4969,-2.4998,-2.5005,-2.5026,-2.5043,-2.5089,-2.5101,-2.5105,-2.512,-2.5057,-2.5057,-2.5057,-2.5057,-2.4843,-2.4876,-2.4885,-2.4939,-2.4956,-2.5003,-2.5041,-2.5045,-2.5091,-2.5077,-2.5092,-2.5075,-2.5111,-2.5125,-2.5058,-2.5057,-2.5057,-2.5057,-2.5057,-2.4877,-2.4896,-2.4916,-2.4968,-2.5008,-2.5034,-2.5078,-2.5093,-2.5108,-2.5123,-2.5142,-2.5142,-2.5143,-2.5132,-2.5132,-2.5132,-2.5132,-2.5132,-2.5132,-2.4903,-2.4926,-2.496,-2.5002,-2.5027,-2.5062,-2.51,-2.5126,-2.5158,-2.5166,-2.5166,-2.517,-2.5112,-2.5096,-2.5135,-2.5134,-2.5134,-2.5134,-2.5134,-2.4967,-2.4955,-2.5008,-2.5032,-2.5083,-2.5122,-2.5141,-2.5192,-2.5215,-2.5236,-2.5239,-2.5193,-2.5195,-2.5191,-2.5177,-2.5235,-2.5235,-2.5235,-2.5235,-2.4995,-2.4997,-2.5054,-2.5093,-2.5133,-2.5156,-2.5216,-2.5248,-2.5278,-2.5294,-2.5289,-2.5273,-2.5268,-2.5273,-2.5267,-2.5255,-2.5331,-2.5331,-2.5331,-2.5034,-2.5041,-2.5089,-2.5117,-2.5159,-2.5194,-2.5252,-2.5297,-2.533,-2.5335,-2.5307,-2.5303,-2.5278,-2.5269,-2.5272,-2.5263,-2.5241,0,0]},{"header":{"parameterUnit":"m.s-1","parameterCategory":1,"la1":30.2992,"la2":30.254,"lo1":-89.0895,"lo2":-89.0443,"dy":0.0025,"dx":0.0025,"nx":19,"ny":19,"refTime":"2026-04-23T03:00:00:Z","depth":0,"parameterNumber":3,"parameterNumberName":"V-component_of_WINDS"},"data":[0,0,0,5.7738,5.7738,5.7732,5.7732,5.7748,5.7748,0,0,0,0,0,0,0,0,0,0,0,5.7753,5.7753,5.7738,5.7738,5.7732,5.7732,5.7748,5.7748,0,0,0,0,0,0,0,0,0,0,0,5.7753,5.7753,5.7754,5.7738,5.7732,5.7732,5.7748,5.7744,0,0,0,0,0,0,0,0,0,0,5.7746,5.7773,5.7753,5.7754,5.7738,5.7732,5.7732,5.7743,5.7744,5.776,0,5.7777,0,5.7763,5.7751,5.7751,0,0,0,5.7728,5.7772,5.7758,5.7754,5.7738,5.7732,5.7732,5.7744,5.7745,5.7762,5.7777,5.7777,5.7763,5.7751,5.7751,5.7874,5.7875,0,0,5.7729,5.7759,5.7758,5.776,5.7761,5.7732,5.7732,5.7744,5.7763,5.7777,5.7777,5.7764,5.7751,5.7751,5.7873,5.7875,0,0,0,5.7736,5.776,5.7745,5.7759,5.7757,5.7732,5.7732,5.7763,5.7755,5.7777,5.7764,5.7751,5.7752,5.7872,5.7874,5.7954,0,0,0,5.7736,5.7764,5.7746,5.7765,5.7757,5.7759,5.7751,5.7755,5.7755,5.7764,5.7751,5.7752,5.7871,5.7873,5.7949,5.7987,0,0,0,5.7749,5.7765,5.7769,5.7766,5.7764,5.7758,5.7751,5.7754,5.7747,5.7751,5.7752,5.787,5.7873,5.7945,5.798,5.8028,0,0,0,5.7772,5.7841,5.7771,5.7843,5.7765,5.7808,5.7751,5.7782,5.7794,5.7752,5.7871,5.7874,5.7944,5.7976,5.8024,5.8075,5.8099,0,0,5.7876,5.7854,5.7894,5.7832,5.7895,5.7806,5.7881,5.7864,5.7837,5.7864,5.7867,5.7951,5.7979,5.8028,5.8222,5.8241,0,0,0,5.7938,5.7967,5.7977,5.799,5.7978,5.7972,5.794,5.7934,5.7954,5.7857,5.798,5.7997,5.8024,5.8046,5.8063,5.8084,5.7885,5.7885,5.7885,5.813,5.8091,5.8154,5.8115,5.8129,5.8095,5.8103,5.8089,5.8046,5.8076,5.8084,5.8206,5.8234,5.8246,5.8269,5.8107,5.8107,5.8108,5.8108,5.8279,5.8314,5.8256,5.8296,5.8255,5.829,5.8261,5.8229,5.8256,5.8197,5.8219,5.8158,5.8268,5.8286,5.8114,5.8113,5.8112,5.8111,5.8111,5.84,5.8411,5.8401,5.8416,5.8433,5.8391,5.8419,5.838,5.8345,5.8366,5.8371,5.8369,5.8363,5.8371,5.8371,5.8372,5.8372,5.8373,5.8373,5.853,5.8517,5.8545,5.8539,5.8542,5.8542,5.851,5.8512,5.8506,5.8476,5.8476,5.8431,5.8286,5.825,5.8379,5.8378,5.8377,5.8377,5.8376,5.8697,5.8653,5.8696,5.87,5.8689,5.8708,5.8659,5.8668,5.8665,5.868,5.863,5.853,5.8505,5.8492,5.8462,5.8638,5.8638,5.8638,5.8638,5.8799,5.8783,5.8818,5.8827,5.883,5.879,5.8842,5.8818,5.8786,5.8782,5.8751,5.8709,5.8697,5.8679,5.8662,5.8634,5.8849,5.885,5.885,5.89,5.8882,5.8932,5.89,5.8889,5.8881,5.8928,5.8941,5.8897,5.8858,5.8778,5.8769,5.87,5.868,5.8639,5.8613,5.8561,0,0]}]]